Regional Weather Roundup
Issued by NWS

Home | Current Version | Previous Version | Graphics & Text | Print | Product List | Glossary On
Versions: 1 2 3 4 5 6 7 8 9 10 11 12 13 14 15 16 17 18 19 20 21 22 23 24 25 26 27 28 29 30 31 32 33 34 35 36 37 38 39 40 41 42 43 44 45 46 47 48 49 50
013
ASUS45 KTFX 241010
RWRMT
MONTANA REGIONAL WEATHER ROUNDUP
NATIONAL WEATHER SERVICE GREAT FALLS MT
300 AM MST SAT FEB 24 2018

NOTE: "FAIR" INDICATES FEW OR NO CLOUDS BELOW 12000 FEET WITH NO
SIGNIFICANT WEATHER AND/OR OBSTRUCTIONS TO VISIBILITY.

MTZ001>007-043-241100-
WEST OF THE DIVIDE

CITY           SKY/WX    TMP DP  RH WIND       PRES   REMARKS
KALISPELL      CLOUDY    19  13  77 S8        29.95F WCI   9
MISSOULA       CLOUDY    16  10  77 NW5       29.97F
BUTTE          CLOUDY    16   3  56 CALM      29.83F
MULLAN PASS    LGT SNOW   9   7  92 VRB6      29.78F FOG     WCI  -1
ANACONDA         N/A     14   3  62 CALM      29.86F
DEER LODGE       N/A     10   3  72 CALM      29.88F
HAMILTON         N/A     21   9  58 MISG      29.96F
RONAN            N/A     18  14  86 S6        29.99F WCI   9
$$

MTZ008-052>055-241100-
SOUTHWEST MONTANA

CITY           SKY/WX    TMP DP  RH WIND       PRES   REMARKS
BOZEMAN        CLOUDY    22   9  57 SW14      29.86F WCI   9
DILLON         FAIR       8   4  83 SW18      29.87F WCI -11
ENNIS          CLOUDY    16   7  67 S16G24    29.91F WCI   0
W YELLOWSTONE  FAIR       9   3  78 SW12G18   29.85S HAZE    WCI  -6
THREE FORKS      N/A     22  13  68 SW22      29.87F WCI   6
$$

MTZ009-010-012-014-046-048-049-054-241100-
EAST SLOPES AND CENTRAL MONTANA

CITY           SKY/WX    TMP DP  RH WIND       PRES   REMARKS
CUT BANK       FAIR      15   9  76 W29       29.67F WCI  -5
GREAT FALLS    FAIR      14   4  64 SW17      29.75F WCI  -3
MALMSTROM AFB  FAIR      17   9  70 SW23      29.77F WCI   0
HELENA         CLOUDY    22   8  55 W12       29.88F WCI  10
AUGUSTA          N/A     17   9  71 W26       29.71S WCI  -2
BOWMANS CRNR   MOCLDY    14   8  76 S24       29.73F WCI  -5
CHOTEAU          N/A     21   5  49 W13G20    29.72F WCI   9
FAIRFIELD      MOCLDY    17   6  63 SW20      29.72F WCI   0
POWER          FAIR       8   1  74 SW13      29.73F WCI  -8
RAYNESFORD     FAIR      20   6  55 W24G35    29.74F WCI   2
ULM            FAIR      18   9  68 SW24      29.77F WCI   0
WHITE SULPHUR    N/A     16   3  57 NW7G14    29.76F WCI   6
$$

MTZ011-013-016-021-045-047-050-051-241100-
NORTH CENTRAL MONTANA

CITY           SKY/WX    TMP DP  RH WIND       PRES   REMARKS
HAVRE          CLOUDY    17  10  74 SW25      29.73F WCI  -1
LEWISTOWN      FAIR      12   3  67 SW17      29.73F WCI  -5
N BAR RANCH    FAIR       9  -4  56 SW8       29.72F WCI  -4
CHINOOK          N/A     19   9  63 SW14      29.74F WCI   6
GEYSER         MOCLDY    13   3  66 W16       29.73R WCI  -4
STANFORD       FAIR      17   7  64 W30G36    29.69F WCI  -2
WINIFRED       FAIR      14   4  65 SW15      29.73F WCI  -1
$$

MTZ017>020-022>027-061-062-241100-
NORTHEAST MONTANA

CITY           SKY/WX    TMP DP  RH WIND       PRES   REMARKS
GLASGOW        FAIR      -6  -9  86 E7        29.78F WCI -20
GLENDIVE       FAIR       3  -3  76 SW17      29.82F WCI -17
JORDAN           N/A      2  -5  72 W10       29.77F WCI -14
MALTA          CLEAR    -18 -24  76 CALM      29.77F
SIDNEY         FAIR      -4  -9  79 S10       29.85F WCI -21
WOLF POINT     FAIR     -15 -20  78 CALM      29.82F
PLENTYWOOD       N/A      0  -6  78 SE9       29.77F WCI -16
POPLAR           N/A     -2  -8  78 CALM      29.83F
$$

MTZ028>42-056>058-241100-
SOUTHCENTRAL AND SOUTHEAST MONTANA

CITY           SKY/WX    TMP DP  RH WIND       PRES   REMARKS
BAKER          MOCLDY     2  -3  80 CALM      29.82F
BILLINGS       MOCLDY    14   3  61 SW15      29.79F WCI  -1
LIVINGSTON     CLOUDY    21  11  65 SW36      29.78F WCI   1
MILES CITY     FAIR      -8 -12  83 CALM      29.83F
BIG TIMBER     CLOUDY    19  14  79 W37G45    29.77F HAZE    WCI  -1
FORSYTH          N/A     -2  -6  84 CALM      29.81F
HARLOWTON      MOCLDY    17   9  69 NW24      29.74F WCI  -1
LAUREL           N/A      9   0  66 SW12      29.82F WCI  -6
$$

REGIONAL REPORTS...DAKOTAS

CITY           SKY/WX    TMP DP  RH WIND       PRES   REMARKS
WILLISTON      FAIR      -4  -8  83 S6        29.84F WCI -16
MINOT          FAIR      12   0  58 S20       29.86F WCI  -6
DICKINSON      FAIR       4  -2  76 S16       29.82F WCI -15
BEACH          FAIR       1  -4  78 S10       29.85F WCI -14
CROSBY         FAIR       3  -4  72 S15G21    29.81F WCI -15
TIOGA          FAIR       0  -4  85 S6        29.83F WCI -12
WATFORD CITY   FAIR      -2  -6  84 CALM      29.83F
BISMARCK       FAIR       1  -3  83 E3        29.99F
GRAND FORKS    FAIR      -1  -4  87 SE14      30.09F WCI -20
FARGO          FAIR      -1  -4  87 S12       30.14F WCI -18
BUFFALO SD       N/A      5   0  79 CALM      29.73F
RAPID CITY     FAIR      14   8  77 S15       29.81F WCI  -1
$$

REGIONAL REPORTS...WYOMING/IDAHO/WASHINGTON

CITY           SKY/WX    TMP DP  RH WIND       PRES   REMARKS
GILLETTE       FAIR      19  12  74 S9G16     29.74F WCI   8
SHERIDAN       FAIR      21  -1  38 W14       29.75F WCI   8
BUFFALO WY     FAIR      14  -4  44 NW8       29.71F WCI   3
CODY           FAIR      20   2  45 W23G33    29.77F WCI   3
YELLOWSTONE LA   N/A     -2  -6  83 CALM      29.82F
IDAHO FALLS    CLOUDY    18  10  71 SW18G26   30.03F WCI   2
SALMON         MOCLDY    17  11  77 N3        30.00F
BOISE          CLOUDY    25  16  68 SE8       30.16F WCI  16
SPOKANE        FLURRIES  24  20  84 SE7       29.97F WCI  16
$$

REGIONAL REPORTS...ALBERTA

CITY           SKY/WX    TMP DP  RH WIND       PRES   REMARKS
CALGARY        CLOUDY    25   0  33 W22G33    29.57S WCI  10
CARDSTON         N/A     19   7  58 W18G26      N/A  WCI   4
EDMONTON       CLEAR     25   9  50 W13       29.52S WCI  13
FORT MCMURRAY  FLURRIES  19  16  86 NW8       29.50R WCI   9
HIGH LEVEL     PTCLDY    14  10  85 NW7       29.67R WCI   4
LETHBRIDGE     LGT SNOW  19  10  68 W39G46    29.64F WCI  -2
LLOYDMINSTER   MOCLDY    16  10  79 W14       29.47F WCI   1
MEDICINE HAT   CLOUDY    21  14  73 S10       29.65F WCI  10
PEACE RIVER    FLURRIES  19  14  79 N10       29.56R WCI   8
PINCHER CREEK  LGT SNOW  16   7  67 W35G40    29.68S WCI  -6
WATERTON GATE    N/A     18   5  57 SW28G48     N/A  WCI  -1
$$

REGIONAL REPORTS...SASKATCHEWAN

CITY           SKY/WX    TMP DP  RH WIND       PRES   REMARKS
CORONACH         N/A      1  -4  78 S7          N/A  WCI -11
CYPRESS HILLS    N/A     18   3  53 W8          N/A  WCI   7
ESTEVAN        CLEAR      7  -2  66 SW14G21   29.80F WCI -10
MOOSE JAW        N/A     10   1  67 SW17        N/A  WCI  -7
PRINCE ALBERT  FLURRIES   9   1  72 SW8       29.56F WCI  -4
REGINA         CLEAR      1  -4  78 S13       29.68F WCI -16
ROCKGLEN         N/A      5   0  78 SW17        N/A  WCI -14
SASKATOON      PTCLDY     7   1  78 SW9       29.58F WCI  -7
VAL MARIE        N/A     -6 -11  77 SW13        N/A  WCI -25
$$




USA.gov is the U.S. government's official web portal to all federal, state and local government web resources and services.